Weather History for KELO - October, 2012

Change the Weather History Date:

Friday, October 5, 2012

  Actual Average Record
Temperature  
Mean Temperature 34 °F -  
Max Temperature 37 °F 55 °F 73 °F (2011)
Min Temperature 32 °F 35 °F 24 °F (2003)
Degree Days  
Heating Degree Days 30    
Moisture  
Dew Point 31 °F    
Average Humidity 90    
Maximum Humidity 100    
Minimum Humidity 81    
Precipitation  
Precipitation 0.02 in - - ()
Sea Level Pressure  
Sea Level Pressure 29.84 in    
Wind  
Wind Speed 16 mph (West)    
Max Wind Speed 22 mph    
Max Gust Speed 31 mph    
Visibility 7 miles    
Events Rain , Snow    
Averages and records for this station are not official NWS values.
T = Trace of Precipitation, MM = Missing Value Source: NWS Daily Summary

Daily Weather History Graph

Daily Weather History Graph

Search for Another Location

Airport or City:

Trip Planner

Search our weather history database for the weather conditions in past years. The results will help you decide how hot, cold, wet, or windy it might be!

Date:

Astronomy

Oct. 05, 2012 Rise Set
Actual Time 7:12 AM CDT 6:37 PM CDT
Civil Twilight 6:41 AM CDT 7:08 PM CDT
Nautical Twilight 6:06 AM CDT 7:44 PM CDT
Astronomical Twilight 5:29 AM CDT 8:20 PM CDT
Moon 9:40 PM CDT (10/5) 12:41 PM CDT (10/5)
Length of Visible Light 12h 26m
Length of Day
11h 24m
Waning Gibbous, 74% of the Moon is Illuminated
Oct 5
Waning Gibbous
Oct 8
Last Quarter
Oct 15
New
Oct 21
First Quarter
Oct 29
Full

Hourly Weather History & Observations

Time (CDT) Temp. Windchill Dew Point Humidity Pressure Visibility Wind Dir Wind Speed Gust Speed Precip Events Conditions
12:13 AM 32.0 °F 19.5 °F 30.2 °F 93% 29.74 in 2.5 mi West 21.9 mph 27.6 mph N/A Snow Light Snow
12:33 AM 32.0 °F 20.8 °F 30.2 °F 93% 29.74 in 3.0 mi WSW 17.3 mph 25.3 mph N/A Snow Light Snow
12:53 AM 32.0 °F 20.1 °F 30.2 °F 93% 29.74 in 4.0 mi WSW 19.6 mph 28.8 mph N/A Snow Light Snow
1:13 AM 32.0 °F 21.2 °F 30.2 °F 93% 29.74 in 4.0 mi West 16.1 mph 26.5 mph N/A Snow Light Snow
1:33 AM 32.0 °F 19.8 °F 30.2 °F 93% 29.75 in 5.0 mi WSW 20.7 mph 27.6 mph N/A Snow Light Snow
1:53 AM 32.0 °F 21.6 °F 30.2 °F 93% 29.75 in 5.0 mi WSW 15.0 mph 27.6 mph N/A Snow Light Snow
2:13 AM 32.0 °F 20.1 °F 28.4 °F 87% 29.75 in 7.0 mi West 19.6 mph 28.8 mph N/A Snow Light Snow
2:33 AM 32.0 °F 19.5 °F 28.4 °F 87% 29.75 in 7.0 mi West 21.9 mph 31.1 mph N/A Snow Light Snow
2:53 AM 32.0 °F 20.8 °F 30.2 °F 93% 29.75 in 7.0 mi WSW 17.3 mph 21.9 mph N/A Snow Light Snow
3:13 AM 32.0 °F 20.5 °F 30.2 °F 93% 29.75 in 7.0 mi WSW 18.4 mph 26.5 mph N/A Snow Light Snow
3:33 AM 32.0 °F 21.2 °F 28.4 °F 87% 29.75 in 10.0 mi West 16.1 mph 28.8 mph N/A   Overcast
3:53 AM 32.0 °F 21.6 °F 28.4 °F 87% 29.75 in 10.0 mi West 15.0 mph 25.3 mph N/A   Overcast
4:13 AM 32.0 °F 19.8 °F 28.4 °F 87% 29.75 in 10.0 mi West 20.7 mph 29.9 mph N/A   Overcast
4:32 AM 32.0 °F 20.5 °F 28.4 °F 87% 29.75 in 10.0 mi West 18.4 mph 25.3 mph N/A Snow Light Snow
4:53 AM 32.0 °F 20.8 °F 28.4 °F 87% 29.75 in 10.0 mi West 17.3 mph 26.5 mph N/A Snow Light Snow
5:13 AM 32.0 °F 22.1 °F 28.4 °F 87% 29.75 in 10.0 mi West 13.8 mph 31.1 mph N/A   Overcast
5:32 AM 32.0 °F 20.5 °F 28.4 °F 87% 29.75 in 10.0 mi West 18.4 mph 31.1 mph N/A   Overcast
5:53 AM 32.0 °F 20.8 °F 28.4 °F 87% 29.75 in 10.0 mi West 17.3 mph 26.5 mph N/A Snow Light Snow
6:12 AM 32.0 °F 20.5 °F 28.4 °F 87% 29.75 in 10.0 mi West 18.4 mph 26.5 mph N/A Snow Light Snow
6:33 AM 32.0 °F 20.5 °F 28.4 °F 87% 29.76 in 10.0 mi WSW 18.4 mph 26.5 mph N/A Snow Light Snow
6:53 AM 32.0 °F 20.5 °F 28.4 °F 87% 29.76 in 10.0 mi West 18.4 mph 28.8 mph N/A Snow Light Snow
7:12 AM 32.0 °F 21.2 °F 28.4 °F 87% 29.76 in 10.0 mi West 16.1 mph 28.8 mph N/A   Overcast
7:33 AM 32.0 °F 20.8 °F 28.4 °F 87% 29.76 in 10.0 mi West 17.3 mph 27.6 mph N/A   Overcast
7:53 AM 32.0 °F 21.6 °F 28.4 °F 87% 29.77 in 10.0 mi West 15.0 mph 18.4 mph N/A   Overcast
8:12 AM 32.0 °F 21.6 °F 28.4 °F 87% 29.77 in 10.0 mi West 15.0 mph 24.2 mph N/A   Overcast
8:33 AM 32.0 °F 21.2 °F 28.4 °F 87% 29.77 in 7.0 mi West 16.1 mph 23.0 mph N/A Snow Light Snow
8:53 AM 32.0 °F 22.5 °F 28.4 °F 87% 29.77 in 4.0 mi West 12.7 mph 21.9 mph N/A Snow Light Snow
9:12 AM 32.0 °F 21.6 °F 28.4 °F 87% 29.78 in 1.2 mi West 15.0 mph 25.3 mph N/A Snow Light Snow
9:33 AM 32.0 °F 21.2 °F 30.2 °F 93% 29.79 in 2.0 mi West 16.1 mph 21.9 mph N/A Snow Light Snow
9:53 AM 32.0 °F 22.5 °F 30.2 °F 93% 29.79 in 2.0 mi West 12.7 mph 23.0 mph N/A Snow Light Snow
10:12 AM 33.8 °F 24.8 °F 30.2 °F 87% 29.80 in 1.8 mi West 12.7 mph 19.6 mph N/A Snow Light Snow
10:33 AM 33.8 °F 24.3 °F 30.2 °F 87% 29.80 in 2.0 mi West 13.8 mph 21.9 mph N/A Snow Light Snow
10:53 AM 33.8 °F 23.9 °F 30.2 °F 87% 29.81 in 1.8 mi West 15.0 mph 26.5 mph N/A Snow Light Snow
11:13 AM 33.8 °F 24.3 °F 30.2 °F 87% 29.81 in 2.0 mi West 13.8 mph 23.0 mph N/A Snow Light Snow
11:33 AM 33.8 °F 25.3 °F 30.2 °F 87% 29.82 in 1.0 mi West 11.5 mph 18.4 mph 0.01 in Snow Light Snow
11:53 AM 33.8 °F 25.8 °F 30.2 °F 87% 29.82 in 1.8 mi West 10.4 mph 21.9 mph 0.01 in Snow Light Snow
12:13 PM 33.8 °F 24.8 °F 32.0 °F 93% 29.82 in 3.0 mi West 12.7 mph - N/A Snow Light Snow
12:32 PM 33.8 °F 23.2 °F 32.0 °F 93% 29.83 in 7.0 mi West 17.3 mph 21.9 mph N/A   Overcast
12:53 PM 35.6 °F 26.2 °F 30.2 °F 81% 29.83 in 10.0 mi West 15.0 mph 28.8 mph N/A   Overcast
1:32 PM 35.6 °F 25.9 °F 32.0 °F 87% 29.83 in 10.0 mi West 16.1 mph 23.0 mph N/A   Overcast
1:53 PM 35.6 °F 25.5 °F 32.0 °F 87% 29.83 in 10.0 mi West 17.3 mph 25.3 mph N/A   Overcast
2:13 PM 35.6 °F 26.2 °F 33.8 °F 93% 29.83 in 7.0 mi West 15.0 mph 24.2 mph N/A   Light Drizzle
2:32 PM 37.4 °F 28.5 °F 33.8 °F 87% 29.84 in 7.0 mi West 15.0 mph - N/A   Overcast
2:53 PM 37.4 °F 29.8 °F 33.8 °F 87% 29.85 in 10.0 mi West 11.5 mph 21.9 mph N/A   Overcast
3:13 PM 37.4 °F 29.3 °F 33.8 °F 87% 29.85 in 10.0 mi West 12.7 mph 20.7 mph N/A   Overcast
3:32 PM 37.4 °F 28.5 °F 33.8 °F 87% 29.85 in 7.0 mi West 15.0 mph 24.2 mph N/A   Overcast
3:53 PM 37.4 °F 29.8 °F 33.8 °F 87% 29.86 in 7.0 mi West 11.5 mph 19.6 mph N/A Rain Light Rain
4:12 PM 35.6 °F 28.0 °F 33.8 °F 93% 29.87 in 3.0 mi WNW 10.4 mph - N/A Rain Rain
4:33 PM 35.6 °F 28.0 °F 35.6 °F 100% 29.87 in 7.0 mi WNW 10.4 mph - N/A Rain Light Rain
4:53 PM 35.6 °F 27.5 °F 33.8 °F 93% 29.89 in 5.0 mi West 11.5 mph 17.3 mph N/A Rain Light Rain
5:13 PM 35.6 °F 30.7 °F 33.8 °F 93% 29.89 in 7.0 mi NW 5.8 mph - N/A Rain Light Rain
5:33 PM 35.6 °F 28.0 °F 33.8 °F 93% 29.90 in 10.0 mi NW 10.4 mph 18.4 mph N/A   Overcast
5:53 PM 35.6 °F 29.9 °F 33.8 °F 93% 29.91 in 7.0 mi NW 6.9 mph - N/A Rain Light Rain
6:13 PM 35.6 °F 29.2 °F 33.8 °F 93% 29.92 in 10.0 mi NW 8.1 mph 16.1 mph N/A Rain Light Rain
6:33 PM 35.6 °F 30.7 °F 33.8 °F 93% 29.92 in 10.0 mi NW 5.8 mph - N/A   Drizzle
6:53 PM 33.8 °F 27.7 °F 33.8 °F 100% 29.93 in 5.0 mi NW 6.9 mph - 0.01 in Rain Light Rain
7:13 PM 35.6 °F 27.5 °F 33.8 °F 93% 29.94 in 10.0 mi NW 11.5 mph 18.4 mph N/A Rain Light Rain
7:33 PM 33.8 °F 27.0 °F 33.8 °F 100% 29.95 in 10.0 mi NNW 8.1 mph - N/A Rain Light Rain
7:52 PM 33.8 °F 27.0 °F 33.8 °F 100% 29.95 in 5.0 mi NNW 8.1 mph - N/A Snow Light Snow
8:13 PM 33.8 °F 25.8 °F 32.0 °F 93% 29.96 in 10.0 mi NNW 10.4 mph 17.3 mph N/A Rain Light Rain
8:32 PM 33.8 °F 25.8 °F 32.0 °F 93% 29.97 in 10.0 mi NW 10.4 mph 17.3 mph N/A   Mostly Cloudy
8:53 PM 33.8 °F 26.4 °F 30.2 °F 87% 29.97 in 10.0 mi NNW 9.2 mph 18.4 mph N/A   Mostly Cloudy
9:13 PM 33.8 °F 27.0 °F 32.0 °F 93% 29.98 in 10.0 mi NNW 8.1 mph - N/A Snow Light Snow
9:32 PM 33.8 °F 25.3 °F 30.2 °F 87% 29.99 in 5.0 mi NNW 11.5 mph 20.7 mph N/A Snow Light Snow
9:53 PM 33.8 °F 27.7 °F 30.2 °F 87% 29.99 in 5.0 mi NNW 6.9 mph 20.7 mph N/A Snow Light Snow
10:13 PM 33.8 °F 25.3 °F 30.2 °F 87% 30.00 in 5.0 mi NW 11.5 mph 18.4 mph N/A Snow Light Snow
10:32 PM 32.0 °F 23.6 °F 30.2 °F 93% 30.00 in 5.0 mi NNW 10.4 mph 18.4 mph N/A Snow Light Snow
10:53 PM 32.0 °F 24.8 °F 30.2 °F 93% 30.01 in 10.0 mi NW 8.1 mph - N/A   Mostly Cloudy
11:13 PM 32.0 °F 23.6 °F 30.2 °F 93% 30.01 in 10.0 mi NW 10.4 mph 17.3 mph N/A   Overcast
11:32 PM 32.0 °F 24.2 °F 30.2 °F 93% 30.02 in 10.0 mi NNW 9.2 mph 16.1 mph N/A   Overcast
11:53 PM 32.0 °F 23.6 °F 30.2 °F 93% 30.02 in 7.0 mi NNW 10.4 mph - N/A Snow Light Snow